Location: ????? ??????
(37.8317°N, 23.8750°E)
Time: 12:24:35
(UTC+00:00)

Cosmos 1818 - Pass Details

Date: 20 January 2021
Orbit: 773 x 800 km, 65.0° (Epoch: 03 March)

Event Time Altitude Azimuth Distance (km) Brightness Sun altitude
Rises 16:41:21 0° 209° (SSW) 3,255 7.5 -13.2°
Reaches altitude 10° 16:43:44 10° 209° (SSW) 2,334 6.7 -13.6°
Maximum altitude 16:49:07 88° 302° (WNW) 795 3.5 -14.7°
Enters shadow 16:54:10 12° 30° (NNE) 2,213 5.5 -15.6°
